Torna al catalogo

COSMOS 2256

AttivoMilitarePO
NORAD 22691·PAYLOAD·🇷🇺 Russia

Lanciato Jun 24, 1993 da Plesetsk Cosmodrome

Loading…

Prossimi Passaggi (prossime 24 ore)

TLE

AggiornatoSource: Space-Track

Epoca: Sep 14, 2026, 11:11 UTC

1 22691U 93038E   26257.46603044  .00000038  00000-0  15091-3 0  9992
2 22691  82.5783 154.5390 0007294 135.6488  37.2803 12.63949397533095

Traccia COSMOS 2256 in tempo reale con AllMySat

Download on the App Store